Weather History for Marathon, FL

Change the Weather History Date:

Thursday, January 10, 2013

  Actual Average Record
Temperature  
Mean Temperature 79 °F 69 °F  
Max Temperature 82 °F 75 °F 83 °F (2014)
Min Temperature 76 °F 64 °F 48 °F (2001)
Degree Days  
Heating Degree Days 0 2  
Month to date heating degree days 0 18  
Since 1 July heating degree days 6 39  
Cooling Degree Days 14 6  
Month to date cooling degree days 126 60  
Year to date cooling degree days 126 60  
Growing Degree Days 28 (Base 50)    
Moisture  
Dew Point 66 °F    
Average Humidity 66    
Maximum Humidity 74    
Minimum Humidity 58    
Precipitation  
Precipitation T in 0.05 in 0.36 in (1999)
Month to date precipitation 0.11 0.60  
Year to date precipitation 0.11 0.60  
Snow  
Snow 0.00 in - - ()
Month to date snowfall 0.0  
Since 1 July snowfall 0.0  
Snow Depth 0.00 in    
Sea Level Pressure  
Sea Level Pressure 30.21 in    
Wind  
Wind Speed 11 mph (East)    
Max Wind Speed 16 mph    
Max Gust Speed 25 mph    
Visibility 10 miles    
Events      
T = Trace of Precipitation, MM = Missing Value Source: NWS Daily Summary

Daily Weather History Graph

Daily Weather History Graph

Search for Another Location

Airport:

Trip Planner

Search our weather history database for the weather conditions in past years. The results will help you decide how hot, cold, wet, or windy it might be!

Date:

Astronomy

Jan. 10, 2013 Rise Set
Actual Time 7:10 AM EST 5:53 PM EST
Civil Twilight 6:45 AM EST 6:18 PM EST
Nautical Twilight 6:17 AM EST 6:46 PM EST
Astronomical Twilight 5:49 AM EST 7:14 PM EST
Moon 5:49 AM EST (1/10) 4:58 PM EST (1/10)
Length of Visible Light 11h 32m
Length of Day
10h 43m
Waning Crescent, 2% of the Moon is Illuminated
Jan 10
Waning Crescent
Jan 11
New
Jan 18
First Quarter
Jan 26
Full
Feb 3
Last Quarter

Hourly Weather History & Observations

Time (EST) Temp. Heat Index Dew Point Humidity Pressure Visibility Wind Dir Wind Speed Gust Speed Precip Events Conditions
12:53 AM 77.0 °F - 68.0 °F 74% 30.22 in 10.0 mi East 11.5 mph 20.7 mph N/A   Clear
1:53 AM 77.0 °F - 68.0 °F 74% 30.21 in 10.0 mi East 11.5 mph 19.6 mph N/A   Scattered Clouds
2:53 AM 77.0 °F - 66.9 °F 71% 30.21 in 10.0 mi East 11.5 mph 18.4 mph N/A   Partly Cloudy
3:53 AM 77.0 °F - 66.9 °F 71% 30.20 in 10.0 mi East 9.2 mph 19.6 mph 0.00 in   Mostly Cloudy
4:53 AM 75.9 °F - 66.0 °F 71% 30.20 in 10.0 mi East 10.4 mph 18.4 mph 0.00 in   Mostly Cloudy
5:53 AM 75.9 °F - 66.0 °F 71% 30.22 in 10.0 mi East 10.4 mph - N/A   Scattered Clouds
6:31 AM 75.2 °F - 66.2 °F 73% 30.22 in 10.0 mi East 12.7 mph 20.7 mph N/A   Mostly Cloudy
6:43 AM 75.2 °F - 66.2 °F 73% 30.23 in 10.0 mi East 10.4 mph 20.7 mph N/A   Mostly Cloudy
6:53 AM 75.9 °F - 66.0 °F 71% 30.23 in 10.0 mi East 8.1 mph 18.4 mph N/A   Partly Cloudy
7:53 AM 75.9 °F - 64.0 °F 67% 30.24 in 10.0 mi East 10.4 mph 17.3 mph N/A   Clear
8:53 AM 77.0 °F - 64.9 °F 66% 30.26 in 10.0 mi East 10.4 mph 17.3 mph N/A   Partly Cloudy
9:53 AM 79.0 °F - 64.0 °F 60% 30.25 in 10.0 mi East 12.7 mph 20.7 mph N/A   Scattered Clouds
10:53 AM 80.1 °F 81.7 °F 64.0 °F 58% 30.24 in 10.0 mi East 11.5 mph 20.7 mph N/A   Partly Cloudy
11:53 AM 81.0 °F 83.0 °F 66.0 °F 60% 30.20 in 10.0 mi East 12.7 mph 23.0 mph N/A   Partly Cloudy
12:53 PM 81.0 °F 83.0 °F 66.0 °F 60% 30.16 in 10.0 mi East 12.7 mph 23.0 mph N/A   Clear
1:53 PM 80.1 °F 82.1 °F 66.0 °F 62% 30.14 in 10.0 mi ESE 11.5 mph 24.2 mph N/A   Scattered Clouds
2:53 PM 80.1 °F 82.3 °F 66.9 °F 64% 30.15 in 10.0 mi ESE 12.7 mph 20.7 mph N/A   Partly Cloudy
3:53 PM 80.1 °F 82.1 °F 66.0 °F 62% 30.17 in 10.0 mi East 12.7 mph 20.7 mph N/A   Partly Cloudy
4:53 PM 78.1 °F - 64.0 °F 62% 30.19 in 10.0 mi East 9.2 mph 17.3 mph N/A   Clear
5:53 PM 78.1 °F - 63.0 °F 60% 30.20 in 10.0 mi East 10.4 mph - N/A   Clear
6:53 PM 77.0 °F - 64.0 °F 64% 30.22 in 10.0 mi East 9.2 mph - N/A   Partly Cloudy
7:53 PM 78.1 °F - 64.9 °F 64% 30.22 in 10.0 mi ENE 11.5 mph - N/A   Scattered Clouds
8:53 PM 77.0 °F - 66.9 °F 71% 30.22 in 10.0 mi East 10.4 mph 17.3 mph N/A   Mostly Cloudy
9:53 PM 77.0 °F - 66.0 °F 69% 30.22 in 10.0 mi East 12.7 mph 19.6 mph N/A   Partly Cloudy
10:53 PM 78.1 °F - 66.0 °F 66% 30.22 in 10.0 mi East 11.5 mph 23.0 mph N/A   Mostly Cloudy